Meteo pe oră la

Astăzi, 17 Ianuarie, Duminică

Timp Temperatura Precipitaţii Vânt Presiune Umiditate
00:00 +11°C° 0 mm 1 m/s 557 mmHg 79%
01:00 +11°C° 0 mm 1 m/s 556 mmHg 79%
02:00 +10°C° 0 mm 1 m/s 556 mmHg 79%
03:00 +10°C° 0 mm 1 m/s 556 mmHg 79%
04:00 +10°C° 0 mm 1 m/s 556 mmHg 78%
05:00 +10°C° 0 mm 1 m/s 556 mmHg 78%
06:00 +10°C° 0 mm 0 m/s 557 mmHg 74%
07:00 +11°C° 0 mm 0 m/s 558 mmHg 71%
08:00 +12°C° 0 mm 0 m/s 559 mmHg 67%
09:00 +14°C° 0 mm 1 m/s 559 mmHg 61%
10:00 +16°C° 0 mm 1 m/s 560 mmHg 54%
11:00 +19°C° 0 mm 1 m/s 561 mmHg 48%
12:00 +18°C° 0.4 mm 1 m/s 560 mmHg 48%
13:00 +18°C° 0.4 mm 1 m/s 559 mmHg 48%
14:00 +18°C° 0.4 mm 1 m/s 558 mmHg 48%
15:00 +16°C° 0.6 mm 1 m/s 558 mmHg 55%
16:00 +15°C° 0.6 mm 1 m/s 557 mmHg 62%
17:00 +13°C° 0.6 mm 0 m/s 557 mmHg 69%
18:00 +12°C° 0.2 mm 0 m/s 557 mmHg 71%
19:00 +12°C° 0.2 mm 1 m/s 557 mmHg 73%
20:00 +11°C° 0.2 mm 1 m/s 557 mmHg 75%
21:00 +11°C° 0 mm 1 m/s 557 mmHg 75%
22:00 +10°C° 0 mm 1 m/s 557 mmHg 76%
23:00 +10°C° 0 mm 1 m/s 557 mmHg 76%

Mâine, 18 Ianuarie, Luni

Timp Temperatura Precipitaţii Vânt Presiune Umiditate
00:00 +10°C° 0 mm 1 m/s 557 mmHg 77%
01:00 +10°C° 0 mm 1 m/s 556 mmHg 78%
02:00 +9°C° 0 mm 1 m/s 556 mmHg 80%
03:00 +9°C° 0 mm 1 m/s 556 mmHg 82%
04:00 +9°C° 0 mm 1 m/s 556 mmHg 84%
05:00 +9°C° 0 mm 1 m/s 556 mmHg 87%
06:00 +10°C° 0 mm 1 m/s 557 mmHg 84%
07:00 +11°C° 0 mm 1 m/s 558 mmHg 81%
08:00 +11°C° 0 mm 0 m/s 559 mmHg 78%
09:00 +14°C° 0 mm 1 m/s 559 mmHg 70%
10:00 +16°C° 0 mm 1 m/s 560 mmHg 62%
11:00 +17°C° 0 mm 2 m/s 560 mmHg 55%
12:00 +17°C° 0.3 mm 2 m/s 559 mmHg 55%
13:00 +17°C° 0.3 mm 2 m/s 559 mmHg 55%
14:00 +17°C° 0.3 mm 2 m/s 558 mmHg 55%
15:00 +16°C° 0.3 mm 2 m/s 557 mmHg 60%
16:00 +15°C° 0.3 mm 2 m/s 557 mmHg 65%
17:00 +14°C° 0.3 mm 1 m/s 557 mmHg 70%
18:00 +13°C° 0 mm 1 m/s 557 mmHg 74%
19:00 +12°C° 0 mm 1 m/s 557 mmHg 78%
20:00 +11°C° 0 mm 1 m/s 557 mmHg 81%
21:00 +11°C° 0 mm 1 m/s 557 mmHg 82%
22:00 +10°C° 0 mm 1 m/s 557 mmHg 83%
23:00 +10°C° 0 mm 1 m/s 557 mmHg 84%

Poimâine, 19 Ianuarie, Marţi

Timp Temperatura Precipitaţii Vânt Presiune Umiditate
00:00 +10°C° 0 mm 1 m/s 556 mmHg 84%
01:00 +10°C° 0 mm 1 m/s 556 mmHg 85%
02:00 +9°C° 0 mm 1 m/s 556 mmHg 85%
03:00 +9°C° 0 mm 1 m/s 556 mmHg 86%
04:00 +9°C° 0 mm 1 m/s 556 mmHg 86%
05:00 +9°C° 0 mm 1 m/s 556 mmHg 86%
06:00 +10°C° 0 mm 1 m/s 557 mmHg 81%
07:00 +11°C° 0 mm 0 m/s 558 mmHg 76%
08:00 +12°C° 0 mm 0 m/s 560 mmHg 71%
09:00 +15°C° 0 mm 1 m/s 560 mmHg 63%
10:00 +18°C° 0 mm 1 m/s 561 mmHg 55%
11:00 +19°C° 0 mm 1 m/s 561 mmHg 47%
12:00 +19°C° 0 mm 2 m/s 561 mmHg 45%
13:00 +19°C° 0 mm 2 m/s 560 mmHg 43%
14:00 +20°C° 0 mm 2 m/s 560 mmHg 41%
15:00 +18°C° 0.2 mm 2 m/s 559 mmHg 48%
16:00 +17°C° 0.2 mm 2 m/s 558 mmHg 56%
17:00 +15°C° 0.2 mm 1 m/s 558 mmHg 63%
18:00 +14°C° 0 mm 1 m/s 558 mmHg 67%
19:00 +13°C° 0 mm 1 m/s 558 mmHg 71%
20:00 +12°C° 0 mm 1 m/s 558 mmHg 75%
21:00 +12°C° 0.1 mm 1 m/s 558 mmHg 76%
22:00 +12°C° 0.1 mm 1 m/s 558 mmHg 77%
23:00 +12°C° 0.1 mm 1 m/s 558 mmHg 78%

20 Ianuarie, Miercuri

Timp Temperatura Precipitaţii Vânt Presiune Umiditate
00:00 +11°C° 0 mm 1 m/s 558 mmHg 79%
01:00 +11°C° 0 mm 1 m/s 558 mmHg 79%
02:00 +11°C° 0 mm 1 m/s 558 mmHg 80%
03:00 +10°C° 0 mm 1 m/s 557 mmHg 81%
04:00 +10°C° 0 mm 1 m/s 557 mmHg 82%
05:00 +10°C° 0 mm 1 m/s 557 mmHg 83%
06:00 +11°C° 0 mm 1 m/s 558 mmHg 81%
07:00 +12°C° 0 mm 1 m/s 559 mmHg 79%
08:00 +13°C° 0 mm 1 m/s 560 mmHg 76%
09:00 +14°C° 0 mm 1 m/s 561 mmHg 70%
10:00 +16°C° 0 mm 1 m/s 561 mmHg 63%
11:00 +17°C° 0 mm 2 m/s 562 mmHg 56%
12:00 +17°C° 0 mm 2 m/s 561 mmHg 55%
13:00 +18°C° 0 mm 2 m/s 561 mmHg 53%
14:00 +18°C° 0 mm 2 m/s 560 mmHg 52%
15:00 +17°C° 0 mm 2 m/s 560 mmHg 56%
16:00 +16°C° 0 mm 2 m/s 559 mmHg 61%
17:00 +15°C° 0 mm 1 m/s 558 mmHg 66%
18:00 +14°C° 0 mm 1 m/s 558 mmHg 69%
19:00 +12°C° 0 mm 1 m/s 559 mmHg 73%
20:00 +11°C° 0 mm 1 m/s 559 mmHg 77%
21:00 +11°C° 0 mm 1 m/s 558 mmHg 74%
22:00 +10°C° 0 mm 1 m/s 558 mmHg 72%
23:00 +10°C° 0 mm 1 m/s 558 mmHg 69%

21 Ianuarie, Joi

Timp Temperatura Precipitaţii Vânt Presiune Umiditate
00:00 +10°C° 0 mm 1 m/s 558 mmHg 70%
01:00 +9°C° 0 mm 1 m/s 557 mmHg 71%
02:00 +9°C° 0 mm 1 m/s 557 mmHg 72%
03:00 +9°C° 0 mm 1 m/s 557 mmHg 74%
04:00 +9°C° 0 mm 1 m/s 557 mmHg 76%
05:00 +9°C° 0 mm 1 m/s 557 mmHg 77%
06:00 +10°C° 0 mm 1 m/s 558 mmHg 73%
07:00 +10°C° 0 mm 0 m/s 559 mmHg 68%
08:00 +11°C° 0 mm 0 m/s 560 mmHg 63%
09:00 +14°C° 0 mm 1 m/s 560 mmHg 55%
10:00 +16°C° 0 mm 2 m/s 561 mmHg 46%
11:00 +18°C° 0 mm 2 m/s 561 mmHg 37%
12:00 +18°C° 0 mm 3 m/s 561 mmHg 36%
13:00 +19°C° 0 mm 3 m/s 560 mmHg 35%
14:00 +19°C° 0 mm 3 m/s 560 mmHg 33%
15:00 +18°C° 0 mm 2 m/s 559 mmHg 40%
16:00 +16°C° 0 mm 2 m/s 558 mmHg 46%
17:00 +15°C° 0 mm 2 m/s 557 mmHg 53%
18:00 +13°C° 0 mm 2 m/s 557 mmHg 57%
19:00 +12°C° 0 mm 1 m/s 557 mmHg 61%
20:00 +11°C° 0 mm 1 m/s 557 mmHg 65%
21:00 +10°C° 0 mm 1 m/s 557 mmHg 66%
22:00 +10°C° 0 mm 1 m/s 557 mmHg 67%
23:00 +10°C° 0 mm 1 m/s 557 mmHg 68%

22 Ianuarie, Vineri

Timp Temperatura Precipitaţii Vânt Presiune Umiditate
00:00 +10°C° 0 mm 1 m/s 557 mmHg 68%
01:00 +9°C° 0 mm 1 m/s 556 mmHg 67%
02:00 +9°C° 0 mm 1 m/s 556 mmHg 66%
03:00 +9°C° 0 mm 1 m/s 556 mmHg 65%
04:00 +9°C° 0 mm 1 m/s 556 mmHg 63%
05:00 +9°C° 0 mm 1 m/s 556 mmHg 61%
06:00 +10°C° 0 mm 1 m/s 557 mmHg 58%
07:00 +11°C° 0 mm 0 m/s 558 mmHg 54%
08:00 +13°C° 0 mm 0 m/s 560 mmHg 50%
09:00 +15°C° 0 mm 1 m/s 560 mmHg 45%
10:00 +18°C° 0 mm 1 m/s 561 mmHg 41%
11:00 +20°C° 0 mm 1 m/s 561 mmHg 36%
12:00 +20°C° 0 mm 1 m/s 561 mmHg 36%
13:00 +20°C° 0 mm 1 m/s 560 mmHg 37%
14:00 +20°C° 0 mm 2 m/s 560 mmHg 37%
15:00 +18°C° 0 mm 2 m/s 559 mmHg 43%
16:00 +18°C° 0 mm 1 m/s 558 mmHg 49%
17:00 +16°C° 0 mm 1 m/s 558 mmHg 55%
18:00 +14°C° 0 mm 1 m/s 557 mmHg 59%
19:00 +13°C° 0 mm 1 m/s 557 mmHg 63%
20:00 +12°C° 0 mm 1 m/s 557 mmHg 68%
21:00 +12°C° 0 mm 1 m/s 557 mmHg 69%
22:00 +11°C° 0 mm 1 m/s 557 mmHg 69%
23:00 +11°C° 0 mm 1 m/s 557 mmHg 70%
Arată mai mult

Formular de consimțământ

Meteoprog și furnizorii noștri de servicii pot stoca și accesa date personale, precum cookies, identificatori de dispozitiv sau alte tehnologii similare pe dispozitivul dumneavoastră și procesa astfel de date pentru a personaliza conținutul și reclamele, dar și pentru a oferi caracteristici de social media și pentru a analiza traficul.

  • Stocarea și/sau accesarea informațiilor pe dispozitivul dumneavoastră

    Cookies, identificatori de dispozitiv sau alte informații pot fi stocate sau accesate pe dispozitiv în scopurile indicate mai sus.

  • Reclame și conținut personalizat, evaluarea reclamelor și a conținutului, informații despre audiențe și dezvoltarea produselor

    Reclamele și conținutul pot fi personalizate pe baza unui profil. Pot fi adăugate date suplimentare pentru a personaliza mai bine reclamele și conținutul. Performanța reclamelor și conținutului poate fi măsurată. Pot fi obținute informații despre utilizatorii care au văzut reclamele și conținutul. Aceste date pot fi utilizate pentru a dezvolta sau îmbunătăți experiența utilizatorilor, sistemele și software-ul.

Dând clic pe ‘Sunt de acord’, permiteți utilizarea cookie-urilor menționate, a identificatorilor de dispozitiv, balizelor web sau altor tehnologii similare. Setările pot fi modificate din browser-ul dispozitivului dumneavoastră.

În anumite scopuri, interesele legitime pot prima asupra consimțământului. Puteți citi mai multe informații în acest sens în Politica privind Confidențialitatea Datelor și Cookie.